Location: ??????????
(42.1626°N, 44.1160°E)
Time: 14:24:28
(UTC+00:00)

BREEZE-M DEB (TANK) - Pass Details

Date: 03 March 2021
Orbit: 298 x 16726 km, 49.5° (Epoch: 14 April)

Event Time Altitude Azimuth Distance (km) Brightness Sun altitude
Rises 15:07:48 0° 217° (SW) 2,258 6.7 -3.0°
Reaches altitude 10° 15:09:09 10° 211° (SSW) 1,638 5.8 -3.3°
Maximum altitude 15:12:14 51° 133° (SE) 981 3.9 -3.8°
Drops below altitude 10° 15:21:54 10° 60° (ENE) 4,999 7.1 -5.6°
Sets 15:29:42 0° 58° (ENE) 8,133 8.2 -7.0°
